Year,Month,Day,Hour,Minute,Value (Times are PST for temperature in C)
2013,03,31,00,00,7.70
2013,03,31,00,01,7.70
2013,03,31,00,02,7.70
2013,03,31,00,03,7.70
2013,03,31,00,04,7.70
2013,03,31,00,05,7.60
2013,03,31,00,06,7.60
2013,03,31,00,07,7.60
2013,03,31,00,08,7.60
2013,03,31,00,09,7.50
2013,03,31,00,10,7.50
2013,03,31,00,11,7.40
2013,03,31,00,12,7.40
2013,03,31,00,13,7.40
2013,03,31,00,14,7.40
2013,03,31,00,15,7.40
2013,03,31,00,16,7.30
2013,03,31,00,17,7.30
2013,03,31,00,18,7.30
2013,03,31,00,19,7.30
2013,03,31,00,20,7.30
2013,03,31,00,21,7.30
2013,03,31,00,22,7.30
2013,03,31,00,23,7.20
2013,03,31,00,24,7.20
2013,03,31,00,25,7.20
2013,03,31,00,26,7.20
2013,03,31,00,27,7.20
2013,03,31,00,28,7.20
2013,03,31,00,29,7.20
2013,03,31,00,30,7.20
2013,03,31,00,31,7.30
2013,03,31,00,32,7.20
2013,03,31,00,33,7.20
2013,03,31,00,34,7.20
2013,03,31,00,35,7.20
2013,03,31,00,36,7.20
2013,03,31,00,37,7.20
2013,03,31,00,38,7.20
2013,03,31,00,39,7.20
2013,03,31,00,40,7.20
2013,03,31,00,41,7.10
2013,03,31,00,42,7.10
2013,03,31,00,43,7.10
2013,03,31,00,44,7.10
2013,03,31,00,45,7.10
2013,03,31,00,46,7.10
2013,03,31,00,47,7.10
2013,03,31,00,48,7.10
2013,03,31,00,49,7.00
2013,03,31,00,50,7.00
2013,03,31,00,51,6.90
2013,03,31,00,52,6.90
2013,03,31,00,53,6.90
2013,03,31,00,54,6.90
2013,03,31,00,55,6.90
2013,03,31,00,56,6.80
2013,03,31,00,57,6.80
2013,03,31,00,58,6.80
2013,03,31,00,59,6.80
2013,03,31,01,00,6.80
2013,03,31,01,01,6.70
2013,03,31,01,02,6.80
2013,03,31,01,03,6.70
2013,03,31,01,04,6.70
2013,03,31,01,05,6.70
2013,03,31,01,06,6.70
2013,03,31,01,07,6.70
2013,03,31,01,08,6.70
2013,03,31,01,09,6.70
2013,03,31,01,10,6.60
2013,03,31,01,11,6.60
2013,03,31,01,12,6.60
2013,03,31,01,13,6.60
2013,03,31,01,14,6.60
2013,03,31,01,15,6.60
2013,03,31,01,16,6.50
2013,03,31,01,17,6.50
2013,03,31,01,18,6.50
2013,03,31,01,19,6.40
2013,03,31,01,20,6.40
2013,03,31,01,21,6.40
2013,03,31,01,22,6.40
2013,03,31,01,23,6.40
2013,03,31,01,24,6.30
2013,03,31,01,25,6.30
2013,03,31,01,26,6.30
2013,03,31,01,27,6.30
2013,03,31,01,28,6.30
2013,03,31,01,29,6.30
2013,03,31,01,30,6.30
2013,03,31,01,31,6.30
2013,03,31,01,32,6.20
2013,03,31,01,33,6.20
2013,03,31,01,34,6.20
2013,03,31,01,35,6.20
2013,03,31,01,36,6.10
2013,03,31,01,37,6.10
2013,03,31,01,38,6.10
2013,03,31,01,39,6.10
2013,03,31,01,40,6.10
2013,03,31,01,41,6.00
2013,03,31,01,42,6.00
2013,03,31,01,43,5.90
2013,03,31,01,44,5.90
2013,03,31,01,45,5.90
2013,03,31,01,46,5.90
2013,03,31,01,47,5.80
2013,03,31,01,48,5.80
2013,03,31,01,49,5.80
2013,03,31,01,50,5.80
2013,03,31,01,51,5.80
2013,03,31,01,52,5.80
2013,03,31,01,53,5.70
2013,03,31,01,54,5.70
2013,03,31,01,55,5.70
2013,03,31,01,56,5.70
2013,03,31,01,57,5.70
2013,03,31,01,58,5.70
2013,03,31,01,59,5.70
2013,03,31,02,00,5.60
2013,03,31,02,01,5.60
2013,03,31,02,02,5.60
2013,03,31,02,03,5.60
2013,03,31,02,04,5.60
2013,03,31,02,05,5.60
2013,03,31,02,06,5.60
2013,03,31,02,07,5.50
2013,03,31,02,08,5.50
2013,03,31,02,09,5.50
2013,03,31,02,10,5.50
2013,03,31,02,11,5.50
2013,03,31,02,12,5.50
2013,03,31,02,13,5.50
2013,03,31,02,14,5.50
2013,03,31,02,15,5.50
2013,03,31,02,16,5.50
2013,03,31,02,17,5.50
2013,03,31,02,18,5.50
2013,03,31,02,19,5.50
2013,03,31,02,20,5.50
2013,03,31,02,21,5.40
2013,03,31,02,22,5.40
2013,03,31,02,23,5.40
2013,03,31,02,24,5.40
2013,03,31,02,25,5.40
2013,03,31,02,26,5.40
2013,03,31,02,27,5.40
2013,03,31,02,28,5.40
2013,03,31,02,29,5.40
2013,03,31,02,30,5.40
2013,03,31,02,31,5.40
2013,03,31,02,32,5.40
2013,03,31,02,33,5.40
2013,03,31,02,34,5.40
2013,03,31,02,35,5.40
2013,03,31,02,36,5.30
2013,03,31,02,37,5.30
2013,03,31,02,38,5.30
2013,03,31,02,39,5.30
2013,03,31,02,40,5.30
2013,03,31,02,41,5.30
2013,03,31,02,42,5.20
2013,03,31,02,43,5.20
2013,03,31,02,44,5.20
2013,03,31,02,45,5.20
2013,03,31,02,46,5.20
2013,03,31,02,47,5.20
2013,03,31,02,48,5.10
2013,03,31,02,49,5.10
2013,03,31,02,50,5.10
2013,03,31,02,51,5.10
2013,03,31,02,52,5.10
2013,03,31,02,53,5.00
2013,03,31,02,54,5.00
2013,03,31,02,55,4.90
2013,03,31,02,56,4.90
2013,03,31,02,57,4.90
2013,03,31,02,58,4.90
2013,03,31,02,59,4.90
2013,03,31,03,00,4.80
2013,03,31,03,01,4.80
2013,03,31,03,02,4.80
2013,03,31,03,03,4.80
2013,03,31,03,04,4.80
2013,03,31,03,05,4.80
2013,03,31,03,06,4.80
2013,03,31,03,07,4.80
2013,03,31,03,08,4.80
2013,03,31,03,09,4.80
2013,03,31,03,10,4.70
2013,03,31,03,11,4.80
2013,03,31,03,12,4.80
2013,03,31,03,13,4.70
2013,03,31,03,14,4.70
2013,03,31,03,15,4.70
2013,03,31,03,16,4.70
2013,03,31,03,17,4.70
2013,03,31,03,18,4.70
2013,03,31,03,19,4.70
2013,03,31,03,20,4.70
2013,03,31,03,21,4.70
2013,03,31,03,22,4.70
2013,03,31,03,23,4.70
2013,03,31,03,24,4.70
2013,03,31,03,25,4.70
2013,03,31,03,26,4.70
2013,03,31,03,27,4.70
2013,03,31,03,28,4.70
2013,03,31,03,29,4.60
2013,03,31,03,30,4.60
2013,03,31,03,31,4.60
2013,03,31,03,32,4.60
2013,03,31,03,33,4.60
2013,03,31,03,34,4.60
2013,03,31,03,35,4.60
2013,03,31,03,36,4.60
2013,03,31,03,37,4.50
2013,03,31,03,38,4.50
2013,03,31,03,39,4.40
2013,03,31,03,40,4.40
2013,03,31,03,41,4.40
2013,03,31,03,42,4.40
2013,03,31,03,43,4.40
2013,03,31,03,44,4.30
2013,03,31,03,45,4.30
2013,03,31,03,46,4.30
2013,03,31,03,47,4.30
2013,03,31,03,48,4.30
2013,03,31,03,49,4.30
2013,03,31,03,50,4.30
2013,03,31,03,51,4.30
2013,03,31,03,52,4.30
2013,03,31,03,53,4.20
2013,03,31,03,54,4.20
2013,03,31,03,55,4.20
2013,03,31,03,56,4.20
2013,03,31,03,57,4.20
2013,03,31,03,58,4.20
2013,03,31,03,59,4.20
2013,03,31,04,00,4.20
2013,03,31,04,01,4.20
2013,03,31,04,02,4.20
2013,03,31,04,03,4.20
2013,03,31,04,04,4.20
2013,03,31,04,05,4.20
2013,03,31,04,06,4.20
2013,03,31,04,07,4.20
2013,03,31,04,08,4.20
2013,03,31,04,09,4.10
2013,03,31,04,10,4.10
2013,03,31,04,11,4.10
2013,03,31,04,12,4.10
2013,03,31,04,13,4.10
2013,03,31,04,14,4.10
2013,03,31,04,15,4.10
2013,03,31,04,16,4.10
2013,03,31,04,17,4.10
2013,03,31,04,18,4.10
2013,03,31,04,19,4.00
2013,03,31,04,20,4.00
2013,03,31,04,21,4.00
2013,03,31,04,22,4.00
2013,03,31,04,23,4.00
2013,03,31,04,24,3.90
2013,03,31,04,25,3.90
2013,03,31,04,26,3.90
2013,03,31,04,27,3.90
2013,03,31,04,28,3.90
2013,03,31,04,29,3.90
2013,03,31,04,30,3.90
2013,03,31,04,31,3.90
2013,03,31,04,32,3.90
2013,03,31,04,33,3.90
2013,03,31,04,34,3.90
2013,03,31,04,35,3.90
2013,03,31,04,36,3.90
2013,03,31,04,37,3.90
2013,03,31,04,38,3.90
2013,03,31,04,39,3.90
2013,03,31,04,40,3.90
2013,03,31,04,41,3.80
2013,03,31,04,42,3.80
2013,03,31,04,43,3.80
2013,03,31,04,44,3.80
2013,03,31,04,45,3.80
2013,03,31,04,46,3.80
2013,03,31,04,47,3.80
2013,03,31,04,48,3.80
2013,03,31,04,49,3.80
2013,03,31,04,50,3.80
2013,03,31,04,51,3.80
2013,03,31,04,52,3.80
2013,03,31,04,53,3.80
2013,03,31,04,54,3.80
2013,03,31,04,55,3.70
2013,03,31,04,56,3.80
2013,03,31,04,57,3.80
2013,03,31,04,58,3.80
2013,03,31,04,59,3.80
2013,03,31,05,00,3.80
2013,03,31,05,01,3.80
2013,03,31,05,02,3.70
2013,03,31,05,03,3.70
2013,03,31,05,04,3.70
2013,03,31,05,05,3.70
2013,03,31,05,06,3.70
2013,03,31,05,07,3.70
2013,03,31,05,08,3.70
2013,03,31,05,09,3.70
2013,03,31,05,10,3.60
2013,03,31,05,11,3.60
2013,03,31,05,12,3.60
2013,03,31,05,13,3.60
2013,03,31,05,14,3.60
2013,03,31,05,15,3.60
2013,03,31,05,16,3.50
2013,03,31,05,17,3.50
2013,03,31,05,18,3.40
2013,03,31,05,19,3.40
2013,03,31,05,20,3.40
2013,03,31,05,21,3.40
2013,03,31,05,22,3.40
2013,03,31,05,23,3.40
2013,03,31,05,24,3.40
2013,03,31,05,25,3.40
2013,03,31,05,26,3.40
2013,03,31,05,27,3.30
2013,03,31,05,28,3.30
2013,03,31,05,29,3.30
2013,03,31,05,30,3.30
2013,03,31,05,31,3.30
2013,03,31,05,32,3.30
2013,03,31,05,33,3.30
2013,03,31,05,34,3.20
2013,03,31,05,35,3.20
2013,03,31,05,36,3.20
2013,03,31,05,37,3.20
2013,03,31,05,38,3.20
2013,03,31,05,39,3.20
2013,03,31,05,40,3.20
2013,03,31,05,41,3.20
2013,03,31,05,42,3.20
2013,03,31,05,43,3.20
2013,03,31,05,44,3.20
2013,03,31,05,45,3.20
2013,03,31,05,46,3.20
2013,03,31,05,47,3.20
2013,03,31,05,48,3.20
2013,03,31,05,49,3.20
2013,03,31,05,50,3.10
2013,03,31,05,51,3.10
2013,03,31,05,52,3.10
2013,03,31,05,53,3.10
2013,03,31,05,54,3.10
2013,03,31,05,55,3.10
2013,03,31,05,56,3.10
2013,03,31,05,57,3.10
2013,03,31,05,58,3.10
2013,03,31,05,59,3.00
2013,03,31,06,00,3.00
2013,03,31,06,01,3.00
2013,03,31,06,02,3.00
2013,03,31,06,03,3.00
2013,03,31,06,04,3.00
2013,03,31,06,05,3.00
2013,03,31,06,06,3.00
2013,03,31,06,07,3.00
2013,03,31,06,08,3.00
2013,03,31,06,09,3.00
2013,03,31,06,10,3.00
2013,03,31,06,11,3.00
2013,03,31,06,12,3.00
2013,03,31,06,13,2.90
2013,03,31,06,14,2.90
2013,03,31,06,15,2.90
2013,03,31,06,16,2.90
2013,03,31,06,17,2.90
2013,03,31,06,18,2.90
2013,03,31,06,19,2.90
2013,03,31,06,20,2.90
2013,03,31,06,21,2.90
2013,03,31,06,22,2.90
2013,03,31,06,23,2.90
2013,03,31,06,24,2.90
2013,03,31,06,25,2.90
2013,03,31,06,26,2.80
2013,03,31,06,27,2.80
2013,03,31,06,28,2.80
2013,03,31,06,29,2.80
2013,03,31,06,30,2.80
2013,03,31,06,31,2.80
2013,03,31,06,32,2.80
2013,03,31,06,33,2.80
2013,03,31,06,34,2.80
2013,03,31,06,35,2.80
2013,03,31,06,36,2.80
2013,03,31,06,37,2.80
2013,03,31,06,38,2.80
2013,03,31,06,39,2.80
2013,03,31,06,40,2.80
2013,03,31,06,41,2.80
2013,03,31,06,42,2.80
2013,03,31,06,43,2.80
2013,03,31,06,44,2.70
2013,03,31,06,45,2.70
2013,03,31,06,46,2.70
2013,03,31,06,47,2.70
2013,03,31,06,48,2.70
2013,03,31,06,49,2.70
2013,03,31,06,50,2.60
2013,03,31,06,51,2.60
2013,03,31,06,52,2.60
2013,03,31,06,53,2.60
2013,03,31,06,54,2.60
2013,03,31,06,55,2.60
2013,03,31,06,56,2.60
2013,03,31,06,57,2.60
2013,03,31,06,58,2.50
2013,03,31,06,59,2.50
2013,03,31,07,00,2.50
2013,03,31,07,01,2.50
2013,03,31,07,02,2.50
2013,03,31,07,03,2.40
2013,03,31,07,04,2.40
2013,03,31,07,05,2.40
2013,03,31,07,06,2.40
2013,03,31,07,07,2.40
2013,03,31,07,08,2.40
2013,03,31,07,09,2.40
2013,03,31,07,10,2.40
2013,03,31,07,11,2.40
2013,03,31,07,12,2.40
2013,03,31,07,13,2.40
2013,03,31,07,14,2.40
2013,03,31,07,15,2.30
2013,03,31,07,16,2.30
2013,03,31,07,17,2.30
2013,03,31,07,18,2.30
2013,03,31,07,19,2.30
2013,03,31,07,20,2.30
2013,03,31,07,21,2.30
2013,03,31,07,22,2.30
2013,03,31,07,23,2.30
2013,03,31,07,24,2.30
2013,03,31,07,25,2.30
2013,03,31,07,26,2.30
2013,03,31,07,27,2.30
2013,03,31,07,28,2.30
2013,03,31,07,29,2.30
2013,03,31,07,30,2.30
2013,03,31,07,31,2.30
2013,03,31,07,32,2.30
2013,03,31,07,33,2.40
2013,03,31,07,34,2.40
2013,03,31,07,35,2.40
2013,03,31,07,36,2.40
2013,03,31,07,37,2.40
2013,03,31,07,38,2.40
2013,03,31,07,39,2.40
2013,03,31,07,40,2.40
2013,03,31,07,41,2.50
2013,03,31,07,42,2.50
2013,03,31,07,43,2.50
2013,03,31,07,44,2.50
2013,03,31,07,45,2.60
2013,03,31,07,46,2.60
2013,03,31,07,47,2.60
2013,03,31,07,48,2.60
2013,03,31,07,50,2.60
2013,03,31,07,51,2.60
2013,03,31,07,52,2.70
2013,03,31,07,53,2.70
2013,03,31,07,54,2.70
2013,03,31,07,55,2.70
2013,03,31,07,56,2.70
2013,03,31,07,57,2.80
2013,03,31,07,58,2.80
2013,03,31,07,59,2.80
2013,03,31,08,00,2.80
2013,03,31,08,01,2.80
2013,03,31,08,02,2.90
2013,03,31,08,03,2.90
2013,03,31,08,05,2.90
2013,03,31,08,06,3.00
2013,03,31,08,07,3.00
2013,03,31,08,08,3.00
2013,03,31,08,09,3.10
2013,03,31,08,10,3.10
2013,03,31,08,11,3.10
2013,03,31,08,12,3.10
2013,03,31,08,13,3.20
2013,03,31,08,14,3.20
2013,03,31,08,15,3.20
2013,03,31,08,16,3.20
2013,03,31,08,17,3.30
2013,03,31,08,18,3.30
2013,03,31,08,19,3.30
2013,03,31,08,20,3.40
2013,03,31,08,21,3.40
2013,03,31,08,22,3.40
2013,03,31,08,23,3.50
2013,03,31,08,24,3.60
2013,03,31,08,25,3.60
2013,03,31,08,26,3.70
2013,03,31,08,28,3.80
2013,03,31,08,29,3.80
2013,03,31,08,31,3.90
2013,03,31,08,32,3.90
2013,03,31,08,33,4.00
2013,03,31,08,34,4.00
2013,03,31,08,35,4.10
2013,03,31,08,36,4.10
2013,03,31,08,37,4.20
2013,03,31,08,38,4.20
2013,03,31,08,39,4.20
2013,03,31,08,40,4.20
2013,03,31,08,41,4.30
2013,03,31,08,42,4.30
2013,03,31,08,44,4.40
2013,03,31,08,45,4.50
2013,03,31,08,46,4.60
2013,03,31,08,47,4.60
2013,03,31,08,48,4.70
2013,03,31,08,49,4.70
2013,03,31,08,50,4.80
2013,03,31,08,51,4.80
2013,03,31,08,52,4.90
2013,03,31,08,53,4.90
2013,03,31,08,54,5.00
2013,03,31,08,55,5.10
2013,03,31,08,56,5.10
2013,03,31,08,57,5.20
2013,03,31,08,58,5.20
2013,03,31,08,59,5.30
2013,03,31,09,00,5.30
2013,03,31,09,01,5.30
2013,03,31,09,02,5.40
2013,03,31,09,03,5.40
2013,03,31,09,04,5.50
2013,03,31,09,05,5.60
2013,03,31,09,06,5.60
2013,03,31,09,07,5.70
2013,03,31,09,08,5.70
2013,03,31,09,09,5.70
2013,03,31,09,10,5.80
2013,03,31,09,11,5.80
2013,03,31,09,12,5.90
2013,03,31,09,13,5.90
2013,03,31,09,14,6.00
2013,03,31,09,15,6.10
2013,03,31,09,16,6.10
2013,03,31,09,17,6.20
2013,03,31,09,18,6.20
2013,03,31,09,19,6.20
2013,03,31,09,20,6.30
2013,03,31,09,21,6.30
2013,03,31,09,22,6.30
2013,03,31,09,23,6.40
2013,03,31,09,24,6.40
2013,03,31,09,25,6.50
2013,03,31,09,26,6.60
2013,03,31,09,27,6.60
2013,03,31,09,28,6.70
2013,03,31,09,29,6.70
2013,03,31,09,30,6.80
2013,03,31,09,31,6.80
2013,03,31,09,32,6.90
2013,03,31,09,33,6.90
2013,03,31,09,34,6.90
2013,03,31,09,35,7.00
2013,03,31,09,36,7.10
2013,03,31,09,37,7.10
2013,03,31,09,38,7.10
2013,03,31,09,39,7.20
2013,03,31,09,40,7.30
2013,03,31,09,41,7.30
2013,03,31,09,42,7.30
2013,03,31,09,43,7.40
2013,03,31,09,44,7.40
2013,03,31,09,45,7.50
2013,03,31,09,46,7.50
2013,03,31,09,47,7.50
2013,03,31,09,48,7.50
2013,03,31,09,49,7.50
2013,03,31,09,50,7.50
2013,03,31,09,51,7.50
2013,03,31,09,52,7.60
2013,03,31,09,53,7.60
2013,03,31,09,54,7.60
2013,03,31,09,55,7.60
2013,03,31,09,56,7.70
2013,03,31,09,57,7.80
2013,03,31,09,58,7.90
2013,03,31,09,59,7.90
2013,03,31,10,00,8.10
2013,03,31,10,01,8.10
2013,03,31,10,02,8.20
2013,03,31,10,03,8.30
2013,03,31,10,04,8.30
2013,03,31,10,05,8.40
2013,03,31,10,06,8.40
2013,03,31,10,07,8.50
2013,03,31,10,08,8.50
2013,03,31,10,09,8.50
2013,03,31,10,10,8.70
2013,03,31,10,11,8.70
2013,03,31,10,12,8.80
2013,03,31,10,13,8.90
2013,03,31,10,14,8.90
2013,03,31,10,15,9.00
2013,03,31,10,16,9.10
2013,03,31,10,17,9.10
2013,03,31,10,18,9.20
2013,03,31,10,19,9.30
2013,03,31,10,20,9.30
2013,03,31,10,21,9.40
2013,03,31,10,22,9.40
2013,03,31,10,23,9.50
2013,03,31,10,24,9.60
2013,03,31,10,25,9.70
2013,03,31,10,26,9.70
2013,03,31,10,27,9.80
2013,03,31,10,28,9.90
2013,03,31,10,29,10.00
2013,03,31,10,30,10.00
2013,03,31,10,31,10.10
2013,03,31,10,32,10.20
2013,03,31,10,33,10.20
2013,03,31,10,34,10.20
2013,03,31,10,35,10.30
2013,03,31,10,36,10.30
2013,03,31,10,37,10.40
2013,03,31,10,38,10.40
2013,03,31,10,39,10.50
2013,03,31,10,40,10.60
2013,03,31,10,41,10.60
2013,03,31,10,42,10.70
2013,03,31,10,43,10.70
2013,03,31,10,44,10.70
2013,03,31,10,45,10.80
2013,03,31,10,46,10.80
2013,03,31,10,47,10.80
2013,03,31,10,48,10.80
2013,03,31,10,49,10.90
2013,03,31,10,50,11.10
2013,03,31,10,51,11.10
2013,03,31,10,52,11.10
2013,03,31,10,53,11.20
2013,03,31,10,54,11.20
2013,03,31,10,55,11.30
2013,03,31,10,56,11.30
2013,03,31,10,57,11.30
2013,03,31,10,58,11.40
2013,03,31,10,59,11.40
2013,03,31,11,00,11.60
2013,03,31,11,01,11.70
2013,03,31,11,02,11.70
2013,03,31,11,03,11.80
2013,03,31,11,04,11.80
2013,03,31,11,05,11.90
2013,03,31,11,06,12.10
2013,03,31,11,07,12.20
2013,03,31,11,08,12.20
2013,03,31,11,09,12.30
2013,03,31,11,10,12.30
2013,03,31,11,11,12.40
2013,03,31,11,12,12.40
2013,03,31,11,13,12.50
2013,03,31,11,14,12.50
2013,03,31,11,15,12.60
2013,03,31,11,16,12.60
2013,03,31,11,17,12.60
2013,03,31,11,18,12.70
2013,03,31,11,19,12.80
2013,03,31,11,20,12.80
2013,03,31,11,21,12.90
2013,03,31,11,22,12.90
2013,03,31,11,23,13.00
2013,03,31,11,24,13.10
2013,03,31,11,25,13.10
2013,03,31,11,26,13.20
2013,03,31,11,27,13.30
2013,03,31,11,28,13.30
2013,03,31,11,29,13.40
2013,03,31,11,30,13.50
2013,03,31,11,31,13.60
2013,03,31,11,32,13.60
2013,03,31,11,33,13.70
2013,03,31,11,34,13.70
2013,03,31,11,35,13.80
2013,03,31,11,36,13.80
2013,03,31,11,37,13.90
2013,03,31,11,38,13.90
2013,03,31,11,39,14.00
2013,03,31,11,40,14.10
2013,03,31,11,41,14.10
2013,03,31,11,42,14.10
2013,03,31,11,43,14.10
2013,03,31,11,44,14.20
2013,03,31,11,45,14.20
2013,03,31,11,46,14.20
2013,03,31,11,47,14.20
2013,03,31,11,48,14.20
2013,03,31,11,49,14.20
2013,03,31,11,50,14.20
2013,03,31,11,51,14.20
2013,03,31,11,52,14.30
2013,03,31,11,53,14.30
2013,03,31,11,54,14.30
2013,03,31,11,55,14.30
2013,03,31,11,56,14.30
2013,03,31,11,57,14.30
2013,03,31,11,58,14.30
2013,03,31,11,59,14.40
2013,03,31,12,00,14.40
2013,03,31,12,01,14.50
2013,03,31,12,02,14.60
2013,03,31,12,03,14.60
2013,03,31,12,04,14.70
2013,03,31,12,05,14.80
2013,03,31,12,06,14.80
2013,03,31,12,07,14.90
2013,03,31,12,08,14.90
2013,03,31,12,09,15.00
2013,03,31,12,10,15.10
2013,03,31,12,11,15.10
2013,03,31,12,12,15.20
2013,03,31,12,13,15.20
2013,03,31,12,14,15.30
2013,03,31,12,15,15.30
2013,03,31,12,16,15.30
2013,03,31,12,17,15.30
2013,03,31,12,18,15.20
2013,03,31,12,19,15.20
2013,03,31,12,20,15.20
2013,03,31,12,21,15.10
2013,03,31,12,22,15.10
2013,03,31,12,23,15.10
2013,03,31,12,24,15.10
2013,03,31,12,25,15.20
2013,03,31,12,26,15.20
2013,03,31,12,27,15.30
2013,03,31,12,28,15.40
2013,03,31,12,29,15.40
2013,03,31,12,30,15.40
2013,03,31,12,31,15.40
2013,03,31,12,32,15.40
2013,03,31,12,33,15.30
2013,03,31,12,34,15.30
2013,03,31,12,35,15.30
2013,03,31,12,36,15.40
2013,03,31,12,37,15.40
2013,03,31,12,38,15.50
2013,03,31,12,39,15.60
2013,03,31,12,40,15.70
2013,03,31,12,41,15.80
2013,03,31,12,42,15.90
2013,03,31,12,43,16.10
2013,03,31,12,44,16.20
2013,03,31,12,45,16.20
2013,03,31,12,46,16.20
2013,03,31,12,47,16.30
2013,03,31,12,48,16.30
2013,03,31,12,49,16.30
2013,03,31,12,50,16.30
2013,03,31,12,51,16.30
2013,03,31,12,52,16.40
2013,03,31,12,53,16.40
2013,03,31,12,54,16.40
2013,03,31,12,55,16.50
2013,03,31,12,56,16.60
2013,03,31,12,57,16.70
2013,03,31,12,58,16.70
2013,03,31,12,59,16.80
2013,03,31,13,00,16.80
2013,03,31,13,01,16.80
2013,03,31,13,02,16.90
2013,03,31,13,03,17.00
2013,03,31,13,04,17.10
2013,03,31,13,05,17.20
2013,03,31,13,06,17.20
2013,03,31,13,07,17.30
2013,03,31,13,08,17.30
2013,03,31,13,09,17.30
2013,03,31,13,10,17.40
2013,03,31,13,11,17.40
2013,03,31,13,12,17.50
2013,03,31,13,13,17.60
2013,03,31,13,14,17.60
2013,03,31,13,15,17.70
2013,03,31,13,16,17.70
2013,03,31,13,17,17.70
2013,03,31,13,18,17.80
2013,03,31,13,19,17.80
2013,03,31,13,20,17.90
2013,03,31,13,21,17.90
2013,03,31,13,22,18.00
2013,03,31,13,23,18.10
2013,03,31,13,24,18.10
2013,03,31,13,25,18.20
2013,03,31,13,26,18.20
2013,03,31,13,27,18.30
2013,03,31,13,28,18.30
2013,03,31,13,29,18.40
2013,03,31,13,30,18.60
2013,03,31,13,31,18.70
2013,03,31,13,32,18.80
2013,03,31,13,33,18.80
2013,03,31,13,34,18.90
2013,03,31,13,35,19.00
2013,03,31,13,36,19.10
2013,03,31,13,37,19.10
2013,03,31,13,38,19.20
2013,03,31,13,39,19.20
2013,03,31,13,40,19.30
2013,03,31,13,41,19.40
2013,03,31,13,42,19.60
2013,03,31,13,43,19.70
2013,03,31,13,44,19.70
2013,03,31,13,45,19.70
2013,03,31,13,46,19.60
2013,03,31,13,47,19.60
2013,03,31,13,48,19.40
2013,03,31,13,49,19.40
2013,03,31,13,50,19.30
2013,03,31,13,51,19.30
2013,03,31,13,52,19.20
2013,03,31,13,53,19.10
2013,03,31,13,54,19.10
2013,03,31,13,55,19.00
2013,03,31,13,56,18.90
2013,03,31,13,57,18.90
2013,03,31,13,58,18.90
2013,03,31,13,59,19.00
2013,03,31,14,00,19.10
2013,03,31,14,01,19.10
2013,03,31,14,02,19.20
2013,03,31,14,03,19.30
2013,03,31,14,04,19.30
2013,03,31,14,05,19.40
2013,03,31,14,06,19.40
2013,03,31,14,07,19.40
2013,03,31,14,08,19.40
2013,03,31,14,09,19.60
2013,03,31,14,10,19.70
2013,03,31,14,11,19.80
2013,03,31,14,12,19.90
2013,03,31,14,13,20.10
2013,03,31,14,14,20.20
2013,03,31,14,15,20.20
2013,03,31,14,16,20.30
2013,03,31,14,17,20.40
2013,03,31,14,18,20.60
2013,03,31,14,19,20.70
2013,03,31,14,20,20.80
2013,03,31,14,21,20.90
2013,03,31,14,22,20.90
2013,03,31,14,23,21.00
2013,03,31,14,24,21.10
2013,03,31,14,25,21.10
2013,03,31,14,26,21.20
2013,03,31,14,27,21.20
2013,03,31,14,28,21.20
2013,03,31,14,29,21.20
2013,03,31,14,30,21.20
2013,03,31,14,31,21.20
2013,03,31,14,32,21.10
2013,03,31,14,33,21.10
2013,03,31,14,34,21.10
2013,03,31,14,35,21.20
2013,03,31,14,36,21.20
2013,03,31,14,37,21.30
2013,03,31,14,38,21.40
2013,03,31,14,39,21.40
2013,03,31,14,40,21.40
2013,03,31,14,41,21.40
2013,03,31,14,42,21.40
2013,03,31,14,43,21.40
2013,03,31,14,44,21.40
2013,03,31,14,45,21.40
2013,03,31,14,46,21.40
2013,03,31,14,47,21.40
2013,03,31,14,48,21.40
2013,03,31,14,49,21.40
2013,03,31,14,50,21.40
2013,03,31,14,51,21.30
2013,03,31,14,52,21.30
2013,03,31,14,53,21.40
2013,03,31,14,54,21.30
2013,03,31,14,55,21.30
2013,03,31,14,56,21.30
2013,03,31,14,57,21.30
2013,03,31,14,58,21.40
2013,03,31,14,59,21.40
2013,03,31,15,00,21.30
2013,03,31,15,01,21.30
2013,03,31,15,02,21.20
2013,03,31,15,03,21.20
2013,03,31,15,04,21.20
2013,03,31,15,05,21.30
2013,03,31,15,06,21.20
2013,03,31,15,07,21.20
2013,03,31,15,08,21.10
2013,03,31,15,09,21.10
2013,03,31,15,10,21.10
2013,03,31,15,11,21.10
2013,03,31,15,12,21.20
2013,03,31,15,13,21.20
2013,03,31,15,14,21.20
2013,03,31,15,15,21.30
2013,03,31,15,16,21.20
2013,03,31,15,17,21.20
2013,03,31,15,18,21.20
2013,03,31,15,19,21.20
2013,03,31,15,20,21.30
2013,03,31,15,21,21.30
2013,03,31,15,22,21.30
2013,03,31,15,23,21.40
2013,03,31,15,24,21.50
2013,03,31,15,25,21.60
2013,03,31,15,26,21.60
2013,03,31,15,27,21.70
2013,03,31,15,28,21.70
2013,03,31,15,29,21.80
2013,03,31,15,30,21.90
2013,03,31,15,31,21.90
2013,03,31,15,32,22.10
2013,03,31,15,33,22.10
2013,03,31,15,34,22.20
2013,03,31,15,35,22.30
2013,03,31,15,36,22.40
2013,03,31,15,37,22.60
2013,03,31,15,38,22.70
2013,03,31,15,39,22.70
2013,03,31,15,40,22.80
2013,03,31,15,41,22.70
2013,03,31,15,42,22.70
2013,03,31,15,43,22.80
2013,03,31,15,44,22.80
2013,03,31,15,45,22.90
2013,03,31,15,46,22.90
2013,03,31,15,47,22.80
2013,03,31,15,48,22.80
2013,03,31,15,49,22.70
2013,03,31,15,50,22.70
2013,03,31,15,51,22.70
2013,03,31,15,52,22.80
2013,03,31,15,53,22.80
2013,03,31,15,54,22.90
2013,03,31,15,55,23.00
2013,03,31,15,56,23.10
2013,03,31,15,57,23.10
2013,03,31,15,58,23.20
2013,03,31,15,59,23.20
2013,03,31,16,00,23.20
2013,03,31,16,01,23.20
2013,03,31,16,02,23.20
2013,03,31,16,03,23.20
2013,03,31,16,04,23.20
2013,03,31,16,05,23.30
2013,03,31,16,06,23.30
2013,03,31,16,07,23.40
2013,03,31,16,08,23.50
2013,03,31,16,09,23.60
2013,03,31,16,10,23.70
2013,03,31,16,11,23.80
2013,03,31,16,12,23.90
2013,03,31,16,13,24.00
2013,03,31,16,14,24.10
2013,03,31,16,15,24.20
2013,03,31,16,16,24.20
2013,03,31,16,17,24.20
2013,03,31,16,18,24.20
2013,03,31,16,19,24.30
2013,03,31,16,20,24.30
2013,03,31,16,21,24.40
2013,03,31,16,22,24.40
2013,03,31,16,23,24.40
2013,03,31,16,24,24.40
2013,03,31,16,25,24.40
2013,03,31,16,26,24.40
2013,03,31,16,27,24.50
2013,03,31,16,28,24.60
2013,03,31,16,29,24.60
2013,03,31,16,30,24.60
2013,03,31,16,31,24.60
2013,03,31,16,32,24.50
2013,03,31,16,33,24.40
2013,03,31,16,34,24.30
2013,03,31,16,35,24.20
2013,03,31,16,36,24.20
2013,03,31,16,37,24.10
2013,03,31,16,38,24.10
2013,03,31,16,39,24.00
2013,03,31,16,40,24.00
2013,03,31,16,41,23.90
2013,03,31,16,42,23.80
2013,03,31,16,43,23.70
2013,03,31,16,44,23.50
2013,03,31,16,45,23.40
2013,03,31,16,46,23.30
2013,03,31,16,47,23.30
2013,03,31,16,48,23.30
2013,03,31,16,49,23.30
2013,03,31,16,50,23.30
2013,03,31,16,51,23.30
2013,03,31,16,52,23.30
2013,03,31,16,53,23.30
2013,03,31,16,54,23.30
2013,03,31,16,55,23.20
2013,03,31,16,56,23.20
2013,03,31,16,57,23.10
2013,03,31,16,58,23.20
2013,03,31,16,59,23.10
2013,03,31,17,00,23.10
2013,03,31,17,01,23.10
2013,03,31,17,02,23.10
2013,03,31,17,03,23.00
2013,03,31,17,04,23.00
2013,03,31,17,05,23.10
2013,03,31,17,06,23.10
2013,03,31,17,07,23.10
2013,03,31,17,08,23.00
2013,03,31,17,09,23.10
2013,03,31,17,10,23.10
2013,03,31,17,11,23.10
2013,03,31,17,12,23.00
2013,03,31,17,13,23.00
2013,03,31,17,14,22.90
2013,03,31,17,15,22.90
2013,03,31,17,16,22.80
2013,03,31,17,17,22.80
2013,03,31,17,18,22.80
2013,03,31,17,19,22.80
2013,03,31,17,20,22.90
2013,03,31,17,21,22.90
2013,03,31,17,22,22.90
2013,03,31,17,23,22.90
2013,03,31,17,24,23.00
2013,03,31,17,25,23.10
2013,03,31,17,26,23.10
2013,03,31,17,27,23.20
2013,03,31,17,28,23.30
2013,03,31,17,29,23.30
2013,03,31,17,30,23.40
2013,03,31,17,31,23.40
2013,03,31,17,32,23.50
2013,03,31,17,33,23.50
2013,03,31,17,34,23.50
2013,03,31,17,35,23.50
2013,03,31,17,36,23.50
2013,03,31,17,37,23.50
2013,03,31,17,38,23.40
2013,03,31,17,39,23.40
2013,03,31,17,40,23.30
2013,03,31,17,41,23.30
2013,03,31,17,42,23.20
2013,03,31,17,43,23.20
2013,03,31,17,44,23.10
2013,03,31,17,45,23.10
2013,03,31,17,46,23.10
2013,03,31,17,47,23.00
2013,03,31,17,48,22.90
2013,03,31,17,49,22.90
2013,03,31,17,50,22.90
2013,03,31,17,51,22.90